Content
SEND FEEDBACK

Daily
Averages
Monthly
Summary
United States of America

SOUTHPORT, NORTH CAROLINA


Home > North America > United States > North Carolina
Elevation: 38 feet     Latitude: 34 00N     Longitude: 078 01W

WEATHER
 
SELECT A DAY
Number of Records: 137,114;   Date Range: 8/21/01 - 9/22/14
 
SHARE

PRINT THIS DATA

[ ← Previous Day ]
WEATHER ALMANAC - JANUARY 10, 2013
[ Next Day → ]
[ °C ]   °F
Weather ElementAverageHighLow
Temperature54.7 °F61.9 °F (10:35 am)49.3 °F (10:55 pm)
Dewpoint44.6 °F53.1 °F (6:15 am)30.4 °F (5:55 pm)
Humidity71.3 %98 % (4:55 am)41 % (5:35 pm)
Barometer30.44 in30.49 in (8:55 am)30.41 in (12:35 am)
Wind Speed7.1 mph15 mph (10:35 am)
Wind Gust21.9 mph (10:55 am)
Weather ElementAverage
Visibility9.1 mi
Wind DirectionENE (54.3 °)

Weather ElementTotal
Precipitation---
Heating Degree Days9.4 (Base 65)
Growing Degree Days5.6 (Base 50)
Averaged from 67 records on January 10, 2013
WEATHER CONDITIONS BREAKOUT
WIND DIRECTION BREAKOUT
WEATHER BY HOUR - JANUARY 10, 2013
[ °C ]   °F
Local TimeTemperatureDewpointHumidityBarometerVisibilityWind DirectionWind SpeedGust SpeedPrecipitationEventsConditions
12:35 AM52.9 °F51.3 °F94 %30.41 in10.0 miNNE (20°)3.5 mphClear
12:55 AM51.8 °F50.4 °F95 %30.41 in10.0 miCalmClear
1:15 AM51.8 °F50.5 °F95 %30.41 in10.0 miCalmClear
1:35 AM52.2 °F50.9 °F95 %30.42 in10.0 miCalmClear
1:55 AM52.2 °F51.1 °F96 %30.42 in10.0 miNorth (360°)3.5 mphScattered Clouds
3:15 AM52.5 °F51.6 °F97 %30.42 in7.0 miCalmOvercast
3:35 AM52.0 °F51.1 °F97 %30.42 in10.0 miNorth (360°)3.5 mphOvercast
3:55 AM52.2 °F51.3 °F97 %30.42 in10.0 miNorth (10°)3.5 mphOvercast
4:15 AM52.0 °F51.3 °F97 %30.41 in7.0 miCalmMostly Cloudy
4:35 AM52.3 °F51.6 °F97 %30.41 in5.0 miNorth (10°)3.5 mphMostly Cloudy
4:55 AM52.3 °F51.8 °F98 %30.41 in7.0 miNNE (20°)3.5 mphScattered Clouds
5:15 AM52.9 °F52.2 °F97 %30.41 in7.0 miNNE (20°)3.5 mphClear
5:35 AM53.2 °F52.7 °F98 %30.42 in7.0 miNNE (20°)3.5 mphClear
5:55 AM53.6 °F52.9 °F97 %30.42 in5.0 miNorth (360°)5.8 mphClear
6:15 AM53.8 °F53.1 °F97 %30.42 in7.0 miNNE (20°)3.5 mphClear
6:35 AM53.4 °F52.7 °F97 %30.43 in5.0 miNNE (30°)3.5 mphClear
6:55 AM52.7 °F52.2 °F98 %30.43 in3.0 miCalmMist
7:15 AM52.5 °F52.0 °F98 %30.44 in2.5 miCalmMist
7:35 AM52.3 °F51.8 °F98 %30.45 in2.5 miNNE (20°)3.5 mphMist
7:55 AM52.7 °F51.8 °F97 %30.47 in5.0 miNNE (20°)4.6 mphClear
8:15 AM53.6 °F51.8 °F94 %30.48 in10.0 miNNE (20°)5.8 mphClear
8:35 AM55.2 °F51.8 °F88 %30.48 in10.0 miNNE (30°)4.6 mphClear
8:55 AM56.7 °F51.8 °F84 %30.49 in10.0 miNE (40°)5.8 mphClear
9:15 AM58.3 °F51.1 °F77 %30.49 in10.0 miNE (40°)4.6 mphClear
9:35 AM60.6 °F49.6 °F67 %30.49 in10.0 miENE (60°)9.2 mph17.3 mphClear
10:15 AM61.7 °F47.8 °F60 %30.48 in10.0 miNE (50°)13.8 mph19.6 mphClear
10:35 AM61.9 °F47.5 °F59 %30.48 in10.0 miNE (50°)15.0 mphClear
10:55 AM60.8 °F47.5 °F62 %30.47 in10.0 miNE (50°)12.7 mph21.9 mphClear
11:15 AM60.4 °F47.7 °F63 %30.47 in10.0 miENE (60°)10.4 mph20.7 mphClear
11:35 AM60.4 °F48.0 °F64 %30.46 in10.0 miNE (50°)9.2 mph18.4 mphClear
11:55 AM60.4 °F48.2 °F64 %30.45 in10.0 miENE (60°)9.2 mph16.1 mphClear
12:15 PM60.3 °F47.8 °F64 %30.44 in10.0 miENE (60°)12.7 mph18.4 mphClear
12:35 PM59.9 °F47.7 °F64 %30.43 in10.0 miNE (50°)8.1 mph19.6 mphClear
12:55 PM58.8 °F46.4 °F63 %30.43 in10.0 miNE (50°)9.2 mph19.6 mphClear
1:15 PM59.4 °F45.3 °F60 %30.44 in10.0 miNE (50°)10.4 mphClear
1:35 PM59.2 °F44.4 °F58 %30.43 in10.0 miENE (60°)9.2 mph18.4 mphClear
1:55 PM60.1 °F44.1 °F55 %30.43 in10.0 miENE (70°)10.4 mphClear
2:15 PM59.4 °F41.9 °F52 %30.44 in10.0 miENE (60°)9.2 mph16.1 mphClear
2:35 PM58.6 °F41.2 °F52 %30.44 in10.0 miENE (60°)9.2 mphClear
2:55 PM58.5 °F40.8 °F52 %30.44 in10.0 miNE (50°)9.2 mph17.3 mphClear
3:15 PM58.1 °F39.7 °F50 %30.45 in10.0 miNE (50°)12.7 mph19.6 mphClear
3:35 PM58.1 °F38.8 °F49 %30.44 in10.0 miNE (50°)11.5 mph17.3 mphClear
3:55 PM57.2 °F37.8 °F48 %30.44 in10.0 miNE (50°)11.5 mph16.1 mphClear
4:15 PM57.2 °F37.6 °F48 %30.44 in10.0 miNE (50°)11.5 mphClear
4:35 PM56.3 °F37.0 °F48 %30.44 in10.0 miNE (40°)9.2 mphClear
4:55 PM55.2 °F36.3 °F49 %30.44 in10.0 miNE (50°)9.2 mphClear
5:15 PM54.5 °F31.8 °F42 %30.44 in10.0 miNE (50°)10.4 mphClear
5:35 PM53.8 °F30.6 °F41 %30.45 in10.0 miNE (50°)8.1 mphClear
5:55 PM53.8 °F30.4 °F41 %30.44 in10.0 miNE (50°)9.2 mphClear
6:15 PM53.8 °F32.0 °F44 %30.44 in10.0 miNE (50°)9.2 mphClear
6:35 PM53.6 °F35.1 °F50 %30.44 in10.0 miNE (50°)8.1 mphClear
6:55 PM53.1 °F36.7 °F54 %30.44 in10.0 miNE (50°)9.2 mphClear
7:15 PM53.2 °F35.8 °F52 %30.44 in10.0 miNE (50°)8.1 mph16.1 mphScattered Clouds
7:35 PM53.2 °F33.3 °F47 %30.44 in10.0 miNE (50°)10.4 mph16.1 mphClear
7:55 PM53.1 °F34.0 °F48 %30.45 in10.0 miNE (50°)8.1 mph20.7 mphScattered Clouds
8:15 PM52.5 °F34.7 °F51 %30.45 in10.0 miNE (50°)9.2 mphClear
8:35 PM52.2 °F35.6 °F53 %30.45 in10.0 miNE (50°)6.9 mphClear
8:55 PM52.0 °F37.2 °F57 %30.44 in10.0 miNE (50°)8.1 mphClear
9:15 PM51.4 °F37.8 °F60 %30.44 in10.0 miNE (50°)8.1 mphScattered Clouds
9:35 PM50.7 °F39.4 °F65 %30.43 in10.0 miNE (50°)6.9 mphClear
9:55 PM50.0 °F41.0 °F71 %30.43 in10.0 miENE (60°)6.9 mphClear
10:15 PM50.0 °F42.3 °F75 %30.42 in10.0 miNE (50°)6.9 mphClear
10:35 PM49.6 °F42.8 °F77 %30.42 in10.0 miNE (50°)8.1 mphClear
10:55 PM49.3 °F42.8 °F78 %30.41 in10.0 miNE (50°)6.9 mphClear
11:15 PM49.5 °F43.2 °F79 %30.41 in10.0 miNE (50°)6.9 mphClear
11:35 PM49.3 °F43.7 °F81 %30.41 in10.0 miNE (50°)6.9 mphClear
11:55 PM49.3 °F43.7 °F81 %30.41 in10.0 miNE (50°)8.1 mphClear
Hourly data recorded from KSUT, located miles away from Southport, North Carolina







STORIES FROM OUR PARTNERS